Year,Month,Day,Hour,Minute,Value (Times are PST for temperature in C)
2009,04,25,00,00,6.90
2009,04,25,00,01,6.90
2009,04,25,00,02,7.00
2009,04,25,00,03,7.00
2009,04,25,00,04,7.00
2009,04,25,00,05,7.00
2009,04,25,00,06,7.00
2009,04,25,00,07,7.00
2009,04,25,00,08,6.90
2009,04,25,00,09,6.90
2009,04,25,00,10,6.90
2009,04,25,00,11,6.90
2009,04,25,00,12,6.90
2009,04,25,00,13,6.80
2009,04,25,00,14,6.80
2009,04,25,00,15,6.80
2009,04,25,00,16,6.80
2009,04,25,00,17,6.80
2009,04,25,00,18,6.80
2009,04,25,00,19,6.70
2009,04,25,00,20,6.70
2009,04,25,00,21,6.70
2009,04,25,00,22,6.70
2009,04,25,00,23,6.80
2009,04,25,00,24,6.80
2009,04,25,00,25,6.80
2009,04,25,00,26,6.70
2009,04,25,00,27,6.70
2009,04,25,00,28,6.70
2009,04,25,00,29,6.70
2009,04,25,00,30,6.70
2009,04,25,00,31,6.70
2009,04,25,00,32,6.70
2009,04,25,00,33,6.60
2009,04,25,00,34,6.70
2009,04,25,00,35,6.70
2009,04,25,00,36,6.60
2009,04,25,00,37,6.60
2009,04,25,00,38,6.60
2009,04,25,00,39,6.60
2009,04,25,00,40,6.60
2009,04,25,00,41,6.60
2009,04,25,00,42,6.60
2009,04,25,00,43,6.60
2009,04,25,00,44,6.60
2009,04,25,00,45,6.60
2009,04,25,00,46,6.60
2009,04,25,00,47,6.60
2009,04,25,00,48,6.60
2009,04,25,00,49,6.50
2009,04,25,00,50,6.50
2009,04,25,00,51,6.40
2009,04,25,00,52,6.40
2009,04,25,00,53,6.40
2009,04,25,00,54,6.40
2009,04,25,00,55,6.40
2009,04,25,00,56,6.30
2009,04,25,00,57,6.30
2009,04,25,00,58,6.30
2009,04,25,00,59,6.30
2009,04,25,01,00,6.30
2009,04,25,01,01,6.30
2009,04,25,01,02,6.30
2009,04,25,01,03,6.30
2009,04,25,01,04,6.20
2009,04,25,01,05,6.20
2009,04,25,01,06,6.20
2009,04,25,01,07,6.20
2009,04,25,01,08,6.20
2009,04,25,01,09,6.20
2009,04,25,01,10,6.20
2009,04,25,01,11,6.20
2009,04,25,01,12,6.20
2009,04,25,01,13,6.20
2009,04,25,01,14,6.20
2009,04,25,01,15,6.20
2009,04,25,01,16,6.20
2009,04,25,01,17,6.30
2009,04,25,01,18,6.30
2009,04,25,01,19,6.30
2009,04,25,01,20,6.30
2009,04,25,01,21,6.30
2009,04,25,01,22,6.30
2009,04,25,01,23,6.30
2009,04,25,01,24,6.30
2009,04,25,01,25,6.30
2009,04,25,01,26,6.20
2009,04,25,01,27,6.20
2009,04,25,01,28,6.20
2009,04,25,01,29,6.20
2009,04,25,01,30,6.20
2009,04,25,01,31,6.20
2009,04,25,01,32,6.20
2009,04,25,01,33,6.20
2009,04,25,01,34,6.20
2009,04,25,01,35,6.20
2009,04,25,01,36,6.20
2009,04,25,01,37,6.20
2009,04,25,01,38,6.20
2009,04,25,01,39,6.20
2009,04,25,01,40,6.20
2009,04,25,01,41,6.20
2009,04,25,01,42,6.10
2009,04,25,01,43,6.10
2009,04,25,01,44,6.10
2009,04,25,01,45,6.20
2009,04,25,01,46,6.20
2009,04,25,01,47,6.20
2009,04,25,01,48,6.20
2009,04,25,01,49,6.20
2009,04,25,01,50,6.20
2009,04,25,01,51,6.20
2009,04,25,01,52,6.20
2009,04,25,01,53,6.20
2009,04,25,01,54,6.20
2009,04,25,01,55,6.20
2009,04,25,01,56,6.20
2009,04,25,01,57,6.30
2009,04,25,01,58,6.30
2009,04,25,01,59,6.30
2009,04,25,02,00,6.30
2009,04,25,02,01,6.30
2009,04,25,02,02,6.30
2009,04,25,02,03,6.30
2009,04,25,02,04,6.30
2009,04,25,02,05,6.30
2009,04,25,02,06,6.30
2009,04,25,02,07,6.30
2009,04,25,02,08,6.30
2009,04,25,02,09,6.20
2009,04,25,02,10,6.20
2009,04,25,02,11,6.10
2009,04,25,02,12,6.10
2009,04,25,02,13,6.00
2009,04,25,02,14,5.90
2009,04,25,02,15,5.90
2009,04,25,02,16,5.80
2009,04,25,02,17,5.80
2009,04,25,02,18,5.70
2009,04,25,02,19,5.70
2009,04,25,02,20,5.60
2009,04,25,02,21,5.60
2009,04,25,02,22,5.50
2009,04,25,02,23,5.50
2009,04,25,02,24,5.40
2009,04,25,02,25,5.40
2009,04,25,02,26,5.40
2009,04,25,02,27,5.40
2009,04,25,02,28,5.40
2009,04,25,02,29,5.40
2009,04,25,02,30,5.40
2009,04,25,02,31,5.40
2009,04,25,02,32,5.40
2009,04,25,02,33,5.40
2009,04,25,02,34,5.40
2009,04,25,02,35,5.40
2009,04,25,02,36,5.40
2009,04,25,02,37,5.40
2009,04,25,02,38,5.40
2009,04,25,02,39,5.40
2009,04,25,02,40,5.40
2009,04,25,02,41,5.50
2009,04,25,02,42,5.50
2009,04,25,02,43,5.50
2009,04,25,02,44,5.60
2009,04,25,02,45,5.60
2009,04,25,02,46,5.60
2009,04,25,02,47,5.60
2009,04,25,02,48,5.60
2009,04,25,02,49,5.50
2009,04,25,02,50,5.40
2009,04,25,02,51,5.40
2009,04,25,02,52,5.30
2009,04,25,02,53,5.20
2009,04,25,02,54,5.20
2009,04,25,02,55,5.10
2009,04,25,02,56,5.10
2009,04,25,02,57,5.10
2009,04,25,02,58,5.10
2009,04,25,02,59,5.10
2009,04,25,03,00,5.10
2009,04,25,03,01,5.10
2009,04,25,03,02,5.10
2009,04,25,03,03,5.00
2009,04,25,03,04,4.90
2009,04,25,03,05,4.90
2009,04,25,03,06,4.80
2009,04,25,03,07,4.80
2009,04,25,03,08,4.70
2009,04,25,03,09,4.70
2009,04,25,03,10,4.60
2009,04,25,03,11,4.60
2009,04,25,03,12,4.60
2009,04,25,03,13,4.60
2009,04,25,03,14,4.60
2009,04,25,03,15,4.60
2009,04,25,03,16,4.60
2009,04,25,03,17,4.60
2009,04,25,03,18,4.60
2009,04,25,03,19,4.60
2009,04,25,03,20,4.60
2009,04,25,03,21,4.60
2009,04,25,03,22,4.60
2009,04,25,03,23,4.60
2009,04,25,03,24,4.60
2009,04,25,03,25,4.60
2009,04,25,03,26,4.70
2009,04,25,03,27,4.60
2009,04,25,03,28,4.60
2009,04,25,03,29,4.60
2009,04,25,03,30,4.50
2009,04,25,03,31,4.50
2009,04,25,03,32,4.40
2009,04,25,03,33,4.40
2009,04,25,03,34,4.40
2009,04,25,03,35,4.30
2009,04,25,03,36,4.30
2009,04,25,03,37,4.30
2009,04,25,03,38,4.30
2009,04,25,03,39,4.20
2009,04,25,03,40,4.20
2009,04,25,03,41,4.20
2009,04,25,03,42,4.20
2009,04,25,03,43,4.20
2009,04,25,03,44,4.20
2009,04,25,04,02,3.80
2009,04,25,04,03,3.80
2009,04,25,04,04,3.70
2009,04,25,04,05,3.70
2009,04,25,04,06,3.70
2009,04,25,04,07,3.60
2009,04,25,04,08,3.60
2009,04,25,04,09,3.60
2009,04,25,04,10,3.60
2009,04,25,04,11,3.60
2009,04,25,04,12,3.70
2009,04,25,04,13,3.70
2009,04,25,04,14,3.70
2009,04,25,04,15,3.70
2009,04,25,04,16,3.60
2009,04,25,04,17,3.60
2009,04,25,04,18,3.60
2009,04,25,04,19,3.60
2009,04,25,04,20,3.60
2009,04,25,04,21,3.50
2009,04,25,04,22,3.50
2009,04,25,04,23,3.40
2009,04,25,04,24,3.40
2009,04,25,04,25,3.40
2009,04,25,04,26,3.40
2009,04,25,04,27,3.40
2009,04,25,04,28,3.40
2009,04,25,04,29,3.50
2009,04,25,04,30,3.50
2009,04,25,04,31,3.50
2009,04,25,04,32,3.60
2009,04,25,04,33,3.60
2009,04,25,04,34,3.70
2009,04,25,04,35,3.70
2009,04,25,04,36,3.80
2009,04,25,04,37,3.80
2009,04,25,04,38,3.90
2009,04,25,04,39,3.90
2009,04,25,04,40,3.90
2009,04,25,04,41,3.90
2009,04,25,04,42,3.90
2009,04,25,04,43,3.80
2009,04,25,04,44,3.80
2009,04,25,04,45,3.80
2009,04,25,04,46,3.70
2009,04,25,04,47,3.70
2009,04,25,04,48,3.60
2009,04,25,04,49,3.60
2009,04,25,04,50,3.50
2009,04,25,04,51,3.40
2009,04,25,04,52,3.40
2009,04,25,04,53,3.30
2009,04,25,04,54,3.20
2009,04,25,04,55,3.20
2009,04,25,04,56,3.10
2009,04,25,04,57,3.10
2009,04,25,04,58,3.10
2009,04,25,04,59,3.00
2009,04,25,05,00,3.00
2009,04,25,05,01,2.90
2009,04,25,05,02,2.90
2009,04,25,05,03,2.90
2009,04,25,05,04,2.80
2009,04,25,05,05,2.80
2009,04,25,05,06,2.80
2009,04,25,05,07,2.90
2009,04,25,05,08,2.90
2009,04,25,05,09,2.90
2009,04,25,05,10,2.90
2009,04,25,05,11,2.90
2009,04,25,05,12,2.90
2009,04,25,05,13,2.90
2009,04,25,05,14,2.90
2009,04,25,05,15,2.90
2009,04,25,05,16,3.00
2009,04,25,05,17,3.00
2009,04,25,05,18,3.00
2009,04,25,05,19,3.10
2009,04,25,05,20,3.10
2009,04,25,05,21,3.10
2009,04,25,05,22,3.10
2009,04,25,05,23,3.20
2009,04,25,05,24,3.20
2009,04,25,05,25,3.20
2009,04,25,05,26,3.20
2009,04,25,05,27,3.20
2009,04,25,05,28,3.20
2009,04,25,05,29,3.20
2009,04,25,05,30,3.20
2009,04,25,05,31,3.30
2009,04,25,05,32,3.30
2009,04,25,05,33,3.20
2009,04,25,05,34,3.20
2009,04,25,05,35,3.20
2009,04,25,05,36,3.20
2009,04,25,05,37,3.10
2009,04,25,05,38,3.10
2009,04,25,05,39,3.00
2009,04,25,05,40,3.00
2009,04,25,05,41,2.90
2009,04,25,05,42,2.80
2009,04,25,05,43,2.80
2009,04,25,05,44,2.80
2009,04,25,05,45,2.80
2009,04,25,05,46,2.70
2009,04,25,05,47,2.70
2009,04,25,05,48,2.70
2009,04,25,05,49,2.70
2009,04,25,05,50,2.80
2009,04,25,05,51,2.80
2009,04,25,05,52,2.80
2009,04,25,05,53,2.80
2009,04,25,05,54,2.80
2009,04,25,05,55,2.80
2009,04,25,05,56,2.80
2009,04,25,05,57,2.70
2009,04,25,05,58,2.70
2009,04,25,05,59,2.60
2009,04,25,06,00,2.60
2009,04,25,06,01,2.60
2009,04,25,06,02,2.60
2009,04,25,06,03,2.60
2009,04,25,06,04,2.60
2009,04,25,06,05,2.60
2009,04,25,06,06,2.60
2009,04,25,06,07,2.70
2009,04,25,06,08,2.70
2009,04,25,06,09,2.70
2009,04,25,06,10,2.70
2009,04,25,06,11,2.70
2009,04,25,06,12,2.70
2009,04,25,06,13,2.70
2009,04,25,06,14,2.70
2009,04,25,06,15,2.70
2009,04,25,06,16,2.70
2009,04,25,06,17,2.70
2009,04,25,06,18,2.80
2009,04,25,06,19,2.80
2009,04,25,06,20,2.80
2009,04,25,06,21,2.80
2009,04,25,06,22,2.80
2009,04,25,06,23,2.90
2009,04,25,06,24,2.90
2009,04,25,06,25,2.90
2009,04,25,06,26,2.90
2009,04,25,06,27,3.00
2009,04,25,06,28,3.00
2009,04,25,06,29,3.00
2009,04,25,06,30,3.00
2009,04,25,06,31,3.00
2009,04,25,06,32,3.00
2009,04,25,06,33,3.00
2009,04,25,06,34,3.00
2009,04,25,06,35,3.10
2009,04,25,06,36,3.10
2009,04,25,06,37,3.10
2009,04,25,06,38,3.20
2009,04,25,06,39,3.20
2009,04,25,06,40,3.20
2009,04,25,06,41,3.20
2009,04,25,06,42,3.20
2009,04,25,06,43,3.20
2009,04,25,06,44,3.30
2009,04,25,06,45,3.30
2009,04,25,06,46,3.30
2009,04,25,06,47,3.30
2009,04,25,06,48,3.30
2009,04,25,06,49,3.40
2009,04,25,06,50,3.40
2009,04,25,06,51,3.40
2009,04,25,06,52,3.40
2009,04,25,06,53,3.40
2009,04,25,06,54,3.50
2009,04,25,06,55,3.50
2009,04,25,06,56,3.50
2009,04,25,06,57,3.60
2009,04,25,06,58,3.60
2009,04,25,06,59,3.60
2009,04,25,07,00,3.60
2009,04,25,07,01,3.60
2009,04,25,07,02,3.60
2009,04,25,07,03,3.60
2009,04,25,07,04,3.60
2009,04,25,07,05,3.60
2009,04,25,07,06,3.60
2009,04,25,07,07,3.60
2009,04,25,07,08,3.60
2009,04,25,07,09,3.60
2009,04,25,07,10,3.70
2009,04,25,07,11,3.70
2009,04,25,07,12,3.70
2009,04,25,07,13,3.70
2009,04,25,07,14,3.80
2009,04,25,07,15,3.80
2009,04,25,07,16,3.80
2009,04,25,07,17,3.90
2009,04,25,07,18,3.90
2009,04,25,07,19,3.90
2009,04,25,07,20,4.00
2009,04,25,07,21,4.00
2009,04,25,07,22,4.10
2009,04,25,07,23,4.10
2009,04,25,07,24,4.10
2009,04,25,07,25,4.10
2009,04,25,07,26,4.20
2009,04,25,07,27,4.20
2009,04,25,07,28,4.20
2009,04,25,07,29,4.20
2009,04,25,07,30,4.30
2009,04,25,07,31,4.30
2009,04,25,07,32,4.30
2009,04,25,07,33,4.30
2009,04,25,07,34,4.30
2009,04,25,07,35,4.40
2009,04,25,07,36,4.40
2009,04,25,07,37,4.40
2009,04,25,07,38,4.40
2009,04,25,07,39,4.50
2009,04,25,07,40,4.50
2009,04,25,07,41,4.50
2009,04,25,07,42,4.60
2009,04,25,07,43,4.60
2009,04,25,07,44,4.70
2009,04,25,07,45,4.70
2009,04,25,07,46,4.80
2009,04,25,07,47,4.80
2009,04,25,07,48,4.80
2009,04,25,07,49,4.80
2009,04,25,07,50,4.90
2009,04,25,07,51,4.90
2009,04,25,07,52,4.90
2009,04,25,07,53,4.90
2009,04,25,07,54,4.90
2009,04,25,07,55,4.90
2009,04,25,07,56,5.00
2009,04,25,07,57,5.00
2009,04,25,07,58,5.00
2009,04,25,07,59,5.10
2009,04,25,08,00,5.10
2009,04,25,08,01,5.10
2009,04,25,08,02,5.10
2009,04,25,08,03,5.10
2009,04,25,08,04,5.20
2009,04,25,08,05,5.20
2009,04,25,08,06,5.20
2009,04,25,08,07,5.20
2009,04,25,08,08,5.30
2009,04,25,08,09,5.30
2009,04,25,08,10,5.30
2009,04,25,08,11,5.30
2009,04,25,08,12,5.40
2009,04,25,08,13,5.40
2009,04,25,08,14,5.40
2009,04,25,08,15,5.50
2009,04,25,08,16,5.50
2009,04,25,08,17,5.60
2009,04,25,08,18,5.70
2009,04,25,08,19,5.80
2009,04,25,08,20,5.80
2009,04,25,08,21,5.90
2009,04,25,08,22,5.90
2009,04,25,08,23,6.00
2009,04,25,08,24,6.00
2009,04,25,08,25,6.10
2009,04,25,08,26,6.10
2009,04,25,08,27,6.10
2009,04,25,08,28,6.10
2009,04,25,08,29,6.20
2009,04,25,08,30,6.20
2009,04,25,08,31,6.30
2009,04,25,08,32,6.50
2009,04,25,08,33,6.60
2009,04,25,08,34,6.70
2009,04,25,08,35,6.80
2009,04,25,08,36,7.00
2009,04,25,08,37,7.10
2009,04,25,08,38,7.20
2009,04,25,08,39,7.30
2009,04,25,08,40,7.50
2009,04,25,08,41,7.60
2009,04,25,08,42,7.70
2009,04,25,08,43,7.70
2009,04,25,08,44,7.80
2009,04,25,08,45,7.80
2009,04,25,08,46,7.80
2009,04,25,08,47,7.80
2009,04,25,08,48,7.90
2009,04,25,08,49,8.00
2009,04,25,08,50,8.00
2009,04,25,08,51,8.10
2009,04,25,08,52,8.10
2009,04,25,08,53,8.20
2009,04,25,08,54,8.30
2009,04,25,08,55,8.30
2009,04,25,08,56,8.40
2009,04,25,08,57,8.50
2009,04,25,08,58,8.60
2009,04,25,08,59,8.60
2009,04,25,09,00,8.70
2009,04,25,09,01,8.80
2009,04,25,09,02,8.90
2009,04,25,09,03,9.00
2009,04,25,09,04,9.20
2009,04,25,09,05,9.20
2009,04,25,09,06,9.30
2009,04,25,09,07,9.40
2009,04,25,09,08,9.50
2009,04,25,09,09,9.60
2009,04,25,09,10,9.60
2009,04,25,09,11,9.70
2009,04,25,09,12,9.80
2009,04,25,09,13,9.80
2009,04,25,09,14,9.80
2009,04,25,09,15,9.80
2009,04,25,09,16,9.80
2009,04,25,09,17,9.80
2009,04,25,09,18,9.80
2009,04,25,09,19,9.80
2009,04,25,09,20,9.70
2009,04,25,09,21,9.80
2009,04,25,09,22,9.80
2009,04,25,09,23,9.90
2009,04,25,09,24,10.00
2009,04,25,09,25,10.00
2009,04,25,09,26,10.10
2009,04,25,09,27,10.10
2009,04,25,09,28,10.20
2009,04,25,09,29,10.30
2009,04,25,09,30,10.40
2009,04,25,09,31,10.50
2009,04,25,09,32,10.50
2009,04,25,09,33,10.70
2009,04,25,09,34,10.80
2009,04,25,09,35,10.80
2009,04,25,09,36,10.90
2009,04,25,09,37,10.90
2009,04,25,09,38,10.80
2009,04,25,09,39,10.70
2009,04,25,09,40,10.70
2009,04,25,09,41,10.70
2009,04,25,09,42,10.80
2009,04,25,09,43,10.80
2009,04,25,09,44,10.80
2009,04,25,09,45,10.80
2009,04,25,09,46,10.80
2009,04,25,09,47,10.70
2009,04,25,09,48,10.50
2009,04,25,09,49,10.40
2009,04,25,09,50,10.40
2009,04,25,09,51,10.40
2009,04,25,09,52,10.50
2009,04,25,09,53,10.60
2009,04,25,09,54,10.70
2009,04,25,09,55,10.80
2009,04,25,09,56,10.80
2009,04,25,09,57,10.80
2009,04,25,09,58,10.90
2009,04,25,09,59,11.00
2009,04,25,10,00,11.10
2009,04,25,10,01,11.00
2009,04,25,10,02,10.90
2009,04,25,10,03,10.90
2009,04,25,10,04,11.00
2009,04,25,10,05,11.10
2009,04,25,10,06,11.00
2009,04,25,10,07,10.80
2009,04,25,10,08,10.80
2009,04,25,10,09,10.60
2009,04,25,10,10,10.30
2009,04,25,10,11,10.10
2009,04,25,10,12,9.90
2009,04,25,10,13,9.80
2009,04,25,10,14,9.70
2009,04,25,10,15,9.70
2009,04,25,10,16,9.60
2009,04,25,10,17,9.60
2009,04,25,10,18,9.50
2009,04,25,10,19,9.50
2009,04,25,10,20,9.40
2009,04,25,10,21,9.40
2009,04,25,10,22,9.30
2009,04,25,10,23,9.20
2009,04,25,10,24,9.20
2009,04,25,10,25,9.10
2009,04,25,10,26,9.00
2009,04,25,10,27,8.90
2009,04,25,10,28,8.90
2009,04,25,10,29,8.80
2009,04,25,10,30,8.80
2009,04,25,10,31,8.70
2009,04,25,10,32,8.70
2009,04,25,10,33,8.60
2009,04,25,10,34,8.60
2009,04,25,10,35,8.50
2009,04,25,10,36,8.40
2009,04,25,10,37,8.40
2009,04,25,10,38,8.40
2009,04,25,10,39,8.40
2009,04,25,10,40,8.50
2009,04,25,10,41,8.50
2009,04,25,10,42,8.50
2009,04,25,10,43,8.50
2009,04,25,10,44,8.50
2009,04,25,10,45,8.60
2009,04,25,10,46,8.60
2009,04,25,10,47,8.70
2009,04,25,10,48,8.80
2009,04,25,10,49,8.80
2009,04,25,10,50,8.90
2009,04,25,10,51,9.00
2009,04,25,10,52,9.10
2009,04,25,10,53,9.20
2009,04,25,10,54,9.30
2009,04,25,10,55,9.30
2009,04,25,10,56,9.40
2009,04,25,10,57,9.40
2009,04,25,10,58,9.40
2009,04,25,10,59,9.40
2009,04,25,11,00,9.40
2009,04,25,11,01,9.40
2009,04,25,11,02,9.40
2009,04,25,11,03,9.40
2009,04,25,11,04,9.40
2009,04,25,11,05,9.40
2009,04,25,11,06,9.40
2009,04,25,11,07,9.40
2009,04,25,11,08,9.40
2009,04,25,11,09,9.50
2009,04,25,11,10,9.60
2009,04,25,11,11,9.70
2009,04,25,11,12,9.80
2009,04,25,11,13,9.80
2009,04,25,11,14,9.80
2009,04,25,11,15,9.90
2009,04,25,11,16,9.90
2009,04,25,11,17,9.90
2009,04,25,11,18,9.90
2009,04,25,11,19,9.80
2009,04,25,11,20,9.80
2009,04,25,11,21,9.80
2009,04,25,11,22,9.80
2009,04,25,11,23,9.80
2009,04,25,11,24,9.80
2009,04,25,11,25,9.90
2009,04,25,11,26,10.00
2009,04,25,11,27,10.10
2009,04,25,11,28,10.20
2009,04,25,11,29,10.30
2009,04,25,11,30,10.40
2009,04,25,11,31,10.50
2009,04,25,11,32,10.70
2009,04,25,11,33,10.80
2009,04,25,11,34,10.90
2009,04,25,11,35,11.00
2009,04,25,11,36,11.10
2009,04,25,11,37,11.20
2009,04,25,11,38,11.30
2009,04,25,11,39,11.30
2009,04,25,11,40,11.20
2009,04,25,11,41,10.90
2009,04,25,11,42,10.80
2009,04,25,11,43,10.80
2009,04,25,11,44,10.90
2009,04,25,11,45,11.10
2009,04,25,11,46,11.20
2009,04,25,11,47,11.10
2009,04,25,11,48,11.00
2009,04,25,11,49,10.80
2009,04,25,11,50,10.60
2009,04,25,11,51,10.50
2009,04,25,11,52,10.40
2009,04,25,11,53,10.30
2009,04,25,11,54,10.40
2009,04,25,11,55,10.40
2009,04,25,11,56,10.50
2009,04,25,11,57,10.60
2009,04,25,11,58,10.70
2009,04,25,11,59,10.70
2009,04,25,12,00,10.60
2009,04,25,12,01,10.50
2009,04,25,12,02,10.30
2009,04,25,12,03,10.20
2009,04,25,12,04,10.00
2009,04,25,12,05,10.00
2009,04,25,12,06,10.10
2009,04,25,12,07,10.10
2009,04,25,12,08,10.00
2009,04,25,12,09,9.90
2009,04,25,12,10,9.70
2009,04,25,12,11,9.60
2009,04,25,12,12,9.60
2009,04,25,12,13,9.50
2009,04,25,12,14,9.50
2009,04,25,12,15,9.50
2009,04,25,12,16,9.50
2009,04,25,12,17,9.60
2009,04,25,12,18,9.60
2009,04,25,12,19,9.60
2009,04,25,12,20,9.60
2009,04,25,12,21,9.60
2009,04,25,12,22,9.60
2009,04,25,12,23,9.60
2009,04,25,12,24,9.50
2009,04,25,12,25,9.50
2009,04,25,12,26,9.40
2009,04,25,12,27,9.40
2009,04,25,12,28,9.30
2009,04,25,12,29,9.30
2009,04,25,12,30,9.20
2009,04,25,12,31,9.20
2009,04,25,12,32,9.30
2009,04,25,12,33,9.30
2009,04,25,12,34,9.30
2009,04,25,12,35,9.40
2009,04,25,12,36,9.50
2009,04,25,12,37,9.60
2009,04,25,12,38,9.80
2009,04,25,12,39,10.00
2009,04,25,12,40,10.20
2009,04,25,12,41,10.30
2009,04,25,12,42,10.40
2009,04,25,12,43,10.60
2009,04,25,12,44,10.70
2009,04,25,12,45,10.80
2009,04,25,12,46,10.90
2009,04,25,12,47,11.10
2009,04,25,12,48,11.30
2009,04,25,12,49,11.40
2009,04,25,12,50,11.40
2009,04,25,12,51,11.50
2009,04,25,12,52,11.50
2009,04,25,12,53,11.40
2009,04,25,12,54,11.30
2009,04,25,12,55,11.30
2009,04,25,12,56,11.20
2009,04,25,12,57,11.20
2009,04,25,12,58,11.10
2009,04,25,12,59,11.20
2009,04,25,13,00,11.20
2009,04,25,13,01,11.20
2009,04,25,13,02,11.20
2009,04,25,13,03,11.20
2009,04,25,13,04,11.20
2009,04,25,13,05,11.40
2009,04,25,13,06,11.50
2009,04,25,13,07,11.70
2009,04,25,13,08,11.80
2009,04,25,13,09,11.80
2009,04,25,13,10,11.80
2009,04,25,13,11,11.70
2009,04,25,13,12,11.70
2009,04,25,13,13,11.60
2009,04,25,13,14,11.60
2009,04,25,13,15,11.70
2009,04,25,13,16,11.70
2009,04,25,13,17,11.70
2009,04,25,13,18,11.70
2009,04,25,13,19,11.70
2009,04,25,13,20,11.70
2009,04,25,13,21,11.70
2009,04,25,13,22,11.70
2009,04,25,13,23,11.70
2009,04,25,13,24,11.70
2009,04,25,13,25,11.70
2009,04,25,13,26,11.80
2009,04,25,13,27,11.80
2009,04,25,13,28,11.80
2009,04,25,13,29,11.80
2009,04,25,13,30,11.90
2009,04,25,13,31,11.80
2009,04,25,13,32,11.80
2009,04,25,13,33,11.70
2009,04,25,13,34,11.60
2009,04,25,13,35,11.60
2009,04,25,13,36,11.70
2009,04,25,13,37,11.70
2009,04,25,13,38,11.80
2009,04,25,13,39,11.70
2009,04,25,13,40,11.80
2009,04,25,13,41,11.80
2009,04,25,13,42,11.90
2009,04,25,13,43,12.00
2009,04,25,13,44,12.00
2009,04,25,13,45,12.00
2009,04,25,13,46,12.10
2009,04,25,13,47,12.20
2009,04,25,13,48,12.30
2009,04,25,13,49,12.30
2009,04,25,13,50,12.20
2009,04,25,13,51,12.10
2009,04,25,13,52,12.00
2009,04,25,13,53,11.90
2009,04,25,13,54,11.90
2009,04,25,13,55,11.90
2009,04,25,13,56,11.90
2009,04,25,13,57,11.90
2009,04,25,13,58,11.90
2009,04,25,13,59,12.00
2009,04,25,14,00,12.00
2009,04,25,14,01,11.90
2009,04,25,14,02,12.00
2009,04,25,14,03,12.00
2009,04,25,14,04,12.00
2009,04,25,14,05,12.00
2009,04,25,14,06,12.00
2009,04,25,14,07,11.90
2009,04,25,14,08,11.90
2009,04,25,14,09,12.00
2009,04,25,14,10,12.10
2009,04,25,14,11,12.20
2009,04,25,14,12,12.30
2009,04,25,14,13,12.20
2009,04,25,14,14,12.00
2009,04,25,14,15,11.90
2009,04,25,14,16,11.90
2009,04,25,14,17,11.90
2009,04,25,14,18,11.80
2009,04,25,14,19,11.80
2009,04,25,14,20,11.80
2009,04,25,14,21,11.80
2009,04,25,14,22,11.90
2009,04,25,14,23,12.00
2009,04,25,14,24,12.10
2009,04,25,14,25,12.30
2009,04,25,14,26,12.30
2009,04,25,14,27,12.20
2009,04,25,14,28,12.20
2009,04,25,14,29,12.10
2009,04,25,14,30,12.00
2009,04,25,14,31,11.90
2009,04,25,14,32,11.80
2009,04,25,14,33,11.80
2009,04,25,14,34,11.70
2009,04,25,14,35,11.70
2009,04,25,14,36,11.70
2009,04,25,14,37,11.70
2009,04,25,14,38,11.80
2009,04,25,14,39,11.90
2009,04,25,14,40,11.90
2009,04,25,14,41,11.90
2009,04,25,14,42,11.90
2009,04,25,14,43,11.90
2009,04,25,14,44,12.00
2009,04,25,14,45,12.10
2009,04,25,14,46,12.10
2009,04,25,14,47,12.10
2009,04,25,14,48,12.10
2009,04,25,14,49,12.10
2009,04,25,14,50,12.00
2009,04,25,14,51,12.00
2009,04,25,14,52,11.90
2009,04,25,14,53,11.90
2009,04,25,14,54,11.90
2009,04,25,14,55,12.00
2009,04,25,14,56,12.10
2009,04,25,14,57,12.10
2009,04,25,14,58,12.20
2009,04,25,14,59,12.20
2009,04,25,15,00,12.20
2009,04,25,15,01,12.20
2009,04,25,15,02,12.30
2009,04,25,15,03,12.30
2009,04,25,15,04,12.40
2009,04,25,15,05,12.50
2009,04,25,15,06,12.50
2009,04,25,15,07,12.60
2009,04,25,15,08,12.60
2009,04,25,15,09,12.60
2009,04,25,15,10,12.60
2009,04,25,15,11,12.50
2009,04,25,15,12,12.40
2009,04,25,15,13,12.30
2009,04,25,15,14,12.30
2009,04,25,15,15,12.40
2009,04,25,15,16,12.40
2009,04,25,15,17,12.40
2009,04,25,15,18,12.40
2009,04,25,15,19,12.50
2009,04,25,15,20,12.60
2009,04,25,15,21,12.70
2009,04,25,15,22,12.60
2009,04,25,15,23,12.60
2009,04,25,15,24,12.50
2009,04,25,15,25,12.50
2009,04,25,15,26,12.50
2009,04,25,15,27,12.40
2009,04,25,15,28,12.40
2009,04,25,15,29,12.50
2009,04,25,15,30,12.60
2009,04,25,15,31,12.70
2009,04,25,15,32,12.60
2009,04,25,15,33,12.60
2009,04,25,15,34,12.50
2009,04,25,15,35,12.50
2009,04,25,15,36,12.40
2009,04,25,15,37,12.50
2009,04,25,15,38,12.50
2009,04,25,15,39,12.60
2009,04,25,15,40,12.70
2009,04,25,15,41,12.80
2009,04,25,15,42,12.80
2009,04,25,15,43,12.80
2009,04,25,15,44,12.80
2009,04,25,15,45,12.80
2009,04,25,15,46,12.70
2009,04,25,15,47,12.70
2009,04,25,15,48,12.60
2009,04,25,15,49,12.60
2009,04,25,15,50,12.60
2009,04,25,15,51,12.60
2009,04,25,15,52,12.60
2009,04,25,15,53,12.60
2009,04,25,15,54,12.60
2009,04,25,15,55,12.70
2009,04,25,15,56,12.60
2009,04,25,15,57,12.70
2009,04,25,15,58,12.70
2009,04,25,15,59,12.80
2009,04,25,16,00,12.80
2009,04,25,16,01,12.80
2009,04,25,16,02,12.80
2009,04,25,16,03,12.80
2009,04,25,16,04,12.80
2009,04,25,16,05,12.80
2009,04,25,16,06,12.80
2009,04,25,16,07,12.80
2009,04,25,16,08,12.90
2009,04,25,16,09,12.90
2009,04,25,16,10,12.80
2009,04,25,16,11,12.80
2009,04,25,16,12,12.80
2009,04,25,16,13,12.90
2009,04,25,16,14,12.90
2009,04,25,16,15,13.00
2009,04,25,16,16,13.00
2009,04,25,16,17,12.90
2009,04,25,16,18,12.80
2009,04,25,16,19,12.80
2009,04,25,16,20,12.80
2009,04,25,16,21,12.80
2009,04,25,16,22,12.70
2009,04,25,16,23,12.70
2009,04,25,16,24,12.70
2009,04,25,16,25,12.80
2009,04,25,16,26,12.80
2009,04,25,16,27,12.80
2009,04,25,16,28,12.90
2009,04,25,16,29,12.90
2009,04,25,16,30,12.90
2009,04,25,16,31,12.90
2009,04,25,16,32,12.90
2009,04,25,16,33,12.80
2009,04,25,16,34,12.60
2009,04,25,16,35,12.50
2009,04,25,16,36,12.50
2009,04,25,16,37,12.60
2009,04,25,16,38,12.60
2009,04,25,16,39,12.60
2009,04,25,16,40,12.60
2009,04,25,16,41,12.50
2009,04,25,16,42,12.50
2009,04,25,16,43,12.50
2009,04,25,16,44,12.50
2009,04,25,16,45,12.50
2009,04,25,16,46,12.50
2009,04,25,16,47,12.70
2009,04,25,16,48,12.80
2009,04,25,16,49,12.80
2009,04,25,16,50,12.80
2009,04,25,16,51,12.80
2009,04,25,16,52,12.80
2009,04,25,16,53,12.70
2009,04,25,16,54,12.60
2009,04,25,16,55,12.50
2009,04,25,16,56,12.30
2009,04,25,16,57,12.20
2009,04,25,16,58,12.20
2009,04,25,16,59,12.20
2009,04,25,17,00,12.30
2009,04,25,17,01,12.30
2009,04,25,17,02,12.30
2009,04,25,17,03,12.40
2009,04,25,17,04,12.40
2009,04,25,17,05,12.40
2009,04,25,17,06,12.40
2009,04,25,17,07,12.40
2009,04,25,17,08,12.40
2009,04,25,17,09,12.50
2009,04,25,17,10,12.50
2009,04,25,17,11,12.50
2009,04,25,17,12,12.50
2009,04,25,17,13,12.50
2009,04,25,17,14,12.60
2009,04,25,17,15,12.60
2009,04,25,17,16,12.70
2009,04,25,17,17,12.70
2009,04,25,17,18,12.70
2009,04,25,17,19,12.70
2009,04,25,17,20,12.70
2009,04,25,17,21,12.70
2009,04,25,17,22,12.70
2009,04,25,17,23,12.70
2009,04,25,17,24,12.60
2009,04,25,17,25,12.50
2009,04,25,17,26,12.40
2009,04,25,17,27,12.40
2009,04,25,17,28,12.50
2009,04,25,17,29,12.40
2009,04,25,17,30,12.40
2009,04,25,17,31,12.50
2009,04,25,17,32,12.50
2009,04,25,17,33,12.40
2009,04,25,17,34,12.40
2009,04,25,17,35,12.50
2009,04,25,17,36,12.50
2009,04,25,17,37,12.50
2009,04,25,17,38,12.40
2009,04,25,17,39,12.40
2009,04,25,17,40,12.40
2009,04,25,17,41,12.40
2009,04,25,17,42,12.40
2009,04,25,17,43,12.40
2009,04,25,17,44,12.40
2009,04,25,17,45,12.40
2009,04,25,17,46,12.40
2009,04,25,17,47,12.40
2009,04,25,17,48,12.50
2009,04,25,17,49,12.50
2009,04,25,17,50,12.60
2009,04,25,17,51,12.60
2009,04,25,17,52,12.60
2009,04,25,17,53,12.60
2009,04,25,17,54,12.60
2009,04,25,17,55,12.60
2009,04,25,17,56,12.60
2009,04,25,17,57,12.60
2009,04,25,17,58,12.60
2009,04,25,17,59,12.50
2009,04,25,18,00,12.50
2009,04,25,18,01,12.50
2009,04,25,18,02,12.50
2009,04,25,18,03,12.60
2009,04,25,18,04,12.60